Change the Weather History Date:

Saturday, October 27, 2012

  Actual Average Record
Temperature  
Mean Temperature 32 °F -  
Max Temperature 42 °F 51 °F 68 °F (1977)
Min Temperature 23 °F 35 °F 23 °F (1959)
Degree Days  
Heating Degree Days 32    
Moisture  
Dew Point 22 °F    
Average Humidity 67    
Maximum Humidity 93    
Minimum Humidity 34    
Precipitation  
Precipitation 0.00 in - - ()
Sea Level Pressure  
Sea Level Pressure 30.29 in    
Wind  
Wind Speed 4 mph (NW)    
Max Wind Speed 13 mph    
Max Gust Speed 18 mph    
Visibility 10 miles    
Events      
Averages and records for this station are not official NWS values.
T = Trace of Precipitation, MM = Missing Value Source: NWS Daily Summary

Daily Weather History Graph

Daily Weather History Graph

Search for Another Location

Airport or City:

Trip Planner

Search our weather history database for the weather conditions in past years. The results will help you decide how hot, cold, wet, or windy it might be!

Date:

Astronomy

Oct. 27, 2012 Rise Set
Actual Time 8:18 AM EDT 6:37 PM EDT
Civil Twilight 7:47 AM EDT 7:08 PM EDT
Nautical Twilight 7:12 AM EDT 7:43 PM EDT
Astronomical Twilight 6:38 AM EDT 8:17 PM EDT
Moon 5:26 PM EDT (10/27) 6:08 AM EDT (10/27)
Length of Visible Light 11h 20m
Length of Day
10h 18m
Waxing Gibbous, 96% of the Moon is Illuminated
Oct 27
Waxing Gibbous
Oct 29
Full
Nov 6
Last Quarter
Nov 13
New
Nov 20
First Quarter

Hourly Weather History & Observations

Time (EDT) Temp. Windchill Dew Point Humidity Pressure Visibility Wind Dir Wind Speed Gust Speed Precip Events Conditions
12:35 AM 28.4 °F 24.6 °F 24.8 °F 86% 30.28 in 10.0 mi NW 3.5 mph - N/A   Clear
12:55 AM 30.2 °F - 24.8 °F 80% 30.29 in 10.0 mi Calm Calm - N/A   Clear
1:14 AM 28.4 °F - 24.8 °F 86% 30.29 in 10.0 mi Calm Calm - N/A   Clear
1:35 AM 26.6 °F - 24.8 °F 93% 30.28 in 10.0 mi Calm Calm - N/A   Clear
1:54 AM 26.6 °F - 23.0 °F 86% 30.28 in 10.0 mi Calm Calm - N/A   Clear
2:15 AM 26.6 °F - 23.0 °F 86% 30.28 in 10.0 mi Calm Calm - N/A   Clear
2:34 AM 24.8 °F - 21.2 °F 86% 30.28 in 10.0 mi Calm Calm - N/A   Clear
2:55 AM 24.8 °F 20.5 °F 21.2 °F 86% 30.28 in 10.0 mi WNW 3.5 mph - N/A   Clear
3:15 AM 24.8 °F - 21.2 °F 86% 30.28 in 10.0 mi Calm Calm - N/A   Clear
3:34 AM 24.8 °F 20.5 °F 21.2 °F 86% 30.28 in 10.0 mi WNW 3.5 mph - N/A   Clear
3:55 AM 28.4 °F 23.3 °F 21.2 °F 74% 30.28 in 10.0 mi West 4.6 mph - N/A   Clear
4:14 AM 26.6 °F - 21.2 °F 80% 30.27 in 10.0 mi Calm Calm - N/A   Clear
4:34 AM 26.6 °F 21.2 °F 21.2 °F 80% 30.27 in 10.0 mi WNW 4.6 mph - N/A   Clear
4:55 AM 26.6 °F 21.2 °F 21.2 °F 80% 30.28 in 10.0 mi WNW 4.6 mph - N/A   Clear
5:14 AM 28.4 °F 24.6 °F 23.0 °F 80% 30.28 in 10.0 mi NW 3.5 mph - N/A   Clear
5:35 AM 26.6 °F 22.6 °F 21.2 °F 80% 30.28 in 10.0 mi WNW 3.5 mph - N/A   Clear
5:54 AM 26.6 °F 21.2 °F 21.2 °F 80% 30.28 in 10.0 mi NW 4.6 mph - N/A   Clear
6:15 AM 26.6 °F 22.6 °F 21.2 °F 80% 30.28 in 10.0 mi NW 3.5 mph - N/A   Clear
6:35 AM 26.6 °F 21.2 °F 21.2 °F 80% 30.28 in 10.0 mi NW 4.6 mph - N/A   Clear
6:54 AM 26.6 °F 22.6 °F 21.2 °F 80% 30.29 in 10.0 mi NW 3.5 mph - N/A   Clear
7:15 AM 26.6 °F 21.2 °F 19.4 °F 74% 30.30 in 10.0 mi WNW 4.6 mph - N/A   Clear
7:55 AM 23.0 °F 18.4 °F 19.4 °F 86% 30.30 in 10.0 mi NW 3.5 mph - N/A   Mostly Cloudy
8:14 AM 26.6 °F 22.6 °F 21.2 °F 80% 30.30 in 10.0 mi NW 3.5 mph - N/A   Overcast
8:35 AM 28.4 °F 23.3 °F 24.8 °F 86% 30.31 in 10.0 mi NW 4.6 mph - N/A   Overcast
8:55 AM 30.2 °F 25.4 °F 24.8 °F 80% 30.31 in 10.0 mi WNW 4.6 mph - N/A   Overcast
9:14 AM 32.0 °F 26.4 °F 24.8 °F 75% 30.32 in 10.0 mi NW 5.8 mph - N/A   Overcast
9:35 AM 33.8 °F 28.6 °F 24.8 °F 70% 30.32 in 10.0 mi NW 5.8 mph - N/A   Overcast
10:14 AM 33.8 °F 27.7 °F 24.8 °F 70% 30.31 in 10.0 mi NW 6.9 mph - N/A   Overcast
10:35 AM 33.8 °F 28.6 °F 26.6 °F 75% 30.32 in 10.0 mi NW 5.8 mph - N/A   Overcast
11:15 AM 37.4 °F 32.8 °F 26.6 °F 65% 30.31 in 10.0 mi NW 5.8 mph - N/A   Overcast
11:35 AM 37.4 °F 29.3 °F 26.6 °F 65% 30.31 in 10.0 mi NW 12.7 mph 17.3 mph N/A   Overcast
11:54 AM 39.2 °F 33.0 °F 24.8 °F 56% 30.30 in 10.0 mi NW 9.2 mph - N/A   Overcast
12:15 PM 39.2 °F 33.6 °F 23.0 °F 52% 30.30 in 10.0 mi NW 8.1 mph - N/A   Overcast
12:34 PM 41.0 °F 34.7 °F 21.2 °F 45% 30.29 in 10.0 mi NNW 10.4 mph 16.1 mph N/A   Overcast
12:55 PM 42.8 °F 36.6 °F 17.6 °F 36% 30.29 in 10.0 mi NW 11.5 mph - N/A   Overcast
1:15 PM 42.8 °F 36.2 °F 17.6 °F 36% 30.28 in 10.0 mi NW 12.7 mph - N/A   Overcast
1:34 PM 42.8 °F 36.2 °F 19.4 °F 39% 30.28 in 10.0 mi WNW 12.7 mph 16.1 mph N/A   Overcast
1:55 PM 42.8 °F 37.0 °F 17.6 °F 36% 30.28 in 10.0 mi West 10.4 mph - N/A   Overcast
2:14 PM 42.8 °F 38.0 °F 17.6 °F 36% 30.28 in 10.0 mi WNW 8.1 mph - N/A   Overcast
2:34 PM 42.8 °F 38.0 °F 17.6 °F 36% 30.28 in 10.0 mi WNW 8.1 mph - N/A   Overcast
2:55 PM 42.8 °F 37.5 °F 17.6 °F 36% 30.28 in 10.0 mi WNW 9.2 mph 18.4 mph N/A   Overcast
3:14 PM 42.8 °F 37.0 °F 17.6 °F 36% 30.27 in 10.0 mi West 10.4 mph 18.4 mph N/A   Scattered Clouds
3:35 PM 41.0 °F 35.8 °F 17.6 °F 39% 30.27 in 10.0 mi SW 8.1 mph - N/A   Clear
3:55 PM 42.8 °F 39.3 °F 15.8 °F 34% 30.27 in 10.0 mi WSW 5.8 mph - N/A   Clear
4:14 PM 42.8 °F 38.6 °F 15.8 °F 34% 30.27 in 10.0 mi WSW 6.9 mph - N/A   Clear
4:35 PM 41.0 °F 36.4 °F 17.6 °F 39% 30.27 in 10.0 mi West 6.9 mph - N/A   Scattered Clouds
4:54 PM 42.8 °F - 15.8 °F 34% 30.27 in 10.0 mi Calm Calm - N/A   Mostly Cloudy
5:15 PM 41.0 °F 33.9 °F 21.2 °F 45% 30.28 in 10.0 mi NW 12.7 mph - N/A   Overcast
5:34 PM 39.2 °F 33.0 °F 24.8 °F 56% 30.29 in 10.0 mi NW 9.2 mph - N/A   Overcast
5:55 PM 39.2 °F 32.5 °F 24.8 °F 56% 30.29 in 10.0 mi NW 10.4 mph - N/A   Overcast
6:15 PM 39.2 °F 33.6 °F 24.8 °F 56% 30.29 in 10.0 mi NNW 8.1 mph - N/A   Overcast
6:34 PM 37.4 °F 32.8 °F 23.0 °F 56% 30.30 in 10.0 mi NW 5.8 mph - N/A   Overcast
6:55 PM 37.4 °F 33.8 °F 23.0 °F 56% 30.30 in 10.0 mi NNW 4.6 mph - N/A   Overcast
7:14 PM 35.6 °F 31.7 °F 24.8 °F 65% 30.30 in 10.0 mi North 4.6 mph - N/A   Overcast
7:34 PM 35.6 °F 32.8 °F 24.8 °F 65% 30.31 in 10.0 mi NNW 3.5 mph - N/A   Overcast
7:55 PM 33.8 °F 30.8 °F 24.8 °F 70% 30.31 in 10.0 mi NNW 3.5 mph - N/A   Overcast
8:14 PM 33.8 °F 30.8 °F 24.8 °F 70% 30.31 in 10.0 mi NNW 3.5 mph - N/A   Mostly Cloudy
8:35 PM 32.0 °F 28.7 °F 23.0 °F 69% 30.31 in 10.0 mi NNW 3.5 mph - N/A   Mostly Cloudy
8:54 PM 28.4 °F 23.3 °F 23.0 °F 80% 30.31 in 10.0 mi North 4.6 mph - N/A   Overcast
9:15 PM 30.2 °F 25.4 °F 23.0 °F 75% 30.31 in 10.0 mi North 4.6 mph - N/A   Scattered Clouds
9:34 PM 30.2 °F 26.7 °F 24.8 °F 80% 30.31 in 10.0 mi North 3.5 mph - N/A   Clear
9:55 PM 30.2 °F 26.7 °F 23.0 °F 75% 30.32 in 10.0 mi NNW 3.5 mph - N/A   Clear
10:14 PM 26.6 °F 22.6 °F 21.2 °F 80% 30.33 in 10.0 mi North 3.5 mph - N/A   Clear
10:55 PM 28.4 °F 24.6 °F 24.8 °F 86% 30.33 in 10.0 mi NNW 3.5 mph - N/A   Clear
11:14 PM 28.4 °F - 24.8 °F 86% 30.34 in 10.0 mi Calm Calm - N/A   Clear
11:35 PM 28.4 °F - 24.8 °F 86% 30.33 in 10.0 mi Calm Calm - N/A   Clear
11:55 PM 28.4 °F 24.6 °F 24.8 °F 86% 30.33 in 10.0 mi NNW 3.5 mph - N/A   Clear